Change the Weather History Date:

Tuesday, March 19, 2013

  Actual Average Record
Temperature  
Mean Temperature 36 °F -  
Max Temperature 48 °F 44 °F 48 °F (2011)
Min Temperature 24 °F 27 °F 10 °F (2012)
Degree Days  
Heating Degree Days 29    
Moisture  
Dew Point 29 °F    
Average Humidity 78    
Maximum Humidity 100    
Minimum Humidity 31    
Precipitation  
Precipitation 0.00 in - - ()
Sea Level Pressure  
Sea Level Pressure 29.61 in    
Wind  
Wind Speed 7 mph ()    
Max Wind Speed 17 mph    
Max Gust Speed 25 mph    
Visibility 3.3 miles    
Events Fog , Rain    
Averages and records for this station are not official NWS values.
T = Trace of Precipitation, MM = Missing Value Source: Averaged Metar Reports

Daily Weather History Graph

Daily Weather History Graph

Search for Another Location

Airport or City:

Trip Planner

Search our weather history database for the weather conditions in past years. The results will help you decide how hot, cold, wet, or windy it might be!

Date:

Astronomy

Mar. 19, 2013 Rise Set
Actual Time 5:38 AM JST 5:43 PM JST
Civil Twilight 5:10 AM JST 6:12 PM JST
Nautical Twilight 4:37 AM JST 6:45 PM JST
Astronomical Twilight 4:04 AM JST 7:18 PM JST
Moon 9:48 AM JST (3/19) 12:08 AM JST (3/19)
Length of Visible Light 13h 01m
Length of Day
12h 04m
Waxing Crescent, 44% of the Moon is Illuminated
Mar 19
Waxing Crescent
Mar 20
First Quarter
Mar 27
Full
Apr 3
Last Quarter
Apr 10
New

Hourly Weather History & Observations

Time (JST) Temp. Windchill Dew Point Humidity Pressure Visibility Wind Dir Wind Speed Gust Speed Precip Events Conditions
12:00 AM 35.6 °F 30.7 °F 35.6 °F 100% 29.44 in 0.2 mi South 5.8 mph - N/A Fog Fog
12:05 AM 35.6 °F 29.9 °F 35.6 °F 100% 29.44 in 0.2 mi South 6.9 mph - N/A   Heavy Drizzle
12:30 AM 35.6 °F 29.2 °F 35.6 °F 100% 29.42 in 0.2 mi South 8.1 mph - N/A   Heavy Drizzle
12:43 AM 35.6 °F 28.6 °F 35.6 °F 100% 29.42 in 0.3 mi South 9.2 mph - N/A   Drizzle
1:00 AM 37.4 °F 30.3 °F 37.4 °F 100% 29.42 in 0.4 mi SSE 10.4 mph - N/A Fog , Rain Light Rain Showers
1:24 AM 35.6 °F 28.6 °F 35.6 °F 100% 29.39 in 0.4 mi SSE 9.2 mph - N/A   Drizzle
1:30 AM 35.6 °F 28.6 °F 35.6 °F 100% 29.39 in 0.5 mi South 9.2 mph - N/A   Drizzle
1:38 AM 37.4 °F 31.4 °F 37.4 °F 100% 29.42 in 0.5 mi South 8.1 mph - N/A Fog Fog
2:00 AM 37.4 °F 29.3 °F 37.4 °F 100% 29.42 in 0.2 mi South 12.7 mph - N/A Fog Fog
2:30 AM 35.6 °F 28.6 °F 35.6 °F 100% 29.42 in 0.2 mi South 9.2 mph - N/A Fog Fog
3:00 AM 35.6 °F 29.2 °F 35.6 °F 100% 29.44 in 0.2 mi South 8.1 mph - N/A Fog Fog
3:30 AM 35.6 °F - 35.6 °F 100% 29.44 in 0.2 mi NNW 2.3 mph - N/A Fog Fog
4:00 AM 35.6 °F - 35.6 °F 100% 29.44 in 0.2 mi Variable 1.2 mph - N/A Fog Fog
4:30 AM 35.6 °F - 35.6 °F 100% 29.44 in 0.1 mi NNE 2.3 mph - N/A Fog Fog
5:00 AM 35.6 °F 32.8 °F 35.6 °F 100% 29.47 in 0.1 mi SE 3.5 mph - N/A Fog Fog
5:30 AM 35.6 °F 32.8 °F 35.6 °F 100% 29.47 in 0.1 mi East 3.5 mph - N/A Fog Fog
6:00 AM 35.6 °F 32.8 °F 35.6 °F 100% 29.47 in 0.1 mi South 3.5 mph - N/A Fog Fog
6:13 AM 35.6 °F - 35.6 °F 100% 29.47 in 0.1 mi Variable 2.3 mph - N/A Fog Fog
6:30 AM 35.6 °F - 35.6 °F 100% 29.50 in 0.1 mi Variable 2.3 mph - N/A Fog Fog
6:48 AM 33.8 °F 28.6 °F 33.8 °F 100% 29.50 in 0.1 mi South 5.8 mph - N/A Fog Fog
7:00 AM 35.6 °F 31.7 °F 35.6 °F 100% 29.50 in 0.1 mi South 4.6 mph - N/A Fog Fog
7:30 AM 35.6 °F 28.6 °F 35.6 °F 100% 29.50 in 0.1 mi South 9.2 mph - N/A Fog Fog
8:00 AM 35.6 °F 30.7 °F 35.6 °F 100% 29.53 in 0.1 mi South 5.8 mph - N/A Fog Fog
8:11 AM 37.4 °F 31.4 °F 37.4 °F 100% 29.53 in 0.1 mi SE 8.1 mph - N/A Fog Fog
8:14 AM 37.4 °F 31.4 °F 37.4 °F 100% 29.53 in 0.2 mi SE 8.1 mph - N/A Fog Fog
8:15 AM 37.4 °F 31.4 °F 37.4 °F 100% 29.53 in 0.6 mi SE 8.1 mph - N/A Fog Fog
8:17 AM 37.4 °F 30.8 °F 37.4 °F 100% 29.53 in 0.6 mi SE 9.2 mph - N/A Fog Fog
8:21 AM 37.4 °F 31.4 °F 37.4 °F 100% 29.53 in 0.6 mi SE 8.1 mph - N/A Fog Patches of Fog
8:23 AM 37.4 °F 31.4 °F 37.4 °F 100% 29.53 in 0.9 mi SE 8.1 mph - N/A Fog Patches of Fog
8:25 AM 37.4 °F 31.4 °F 37.4 °F 100% 29.53 in 1.5 mi SE 8.1 mph - N/A Fog Patches of Fog
8:28 AM 37.4 °F 31.4 °F 37.4 °F 100% 29.53 in 1.5 mi SE 8.1 mph - N/A Fog Patches of Fog
8:30 AM 37.4 °F 31.4 °F 37.4 °F 100% 29.53 in 1.9 mi SE 8.1 mph - N/A Fog Patches of Fog
8:37 AM 37.4 °F 30.3 °F 37.4 °F 100% 29.53 in - SSE 10.4 mph - N/A Fog Patches of Fog
8:46 AM 35.6 °F 28.6 °F 35.6 °F 100% 29.56 in 3.1 mi SSE 9.2 mph - N/A Fog Fog
9:00 AM 39.2 °F 33.0 °F 39.2 °F 100% 29.56 in 3.7 mi SE 9.2 mph - N/A   Mostly Cloudy
9:30 AM 41.0 °F 34.3 °F 41.0 °F 100% 29.53 in 6.2 mi SE 11.5 mph - N/A   Mostly Cloudy
10:00 AM 44.6 °F 39.7 °F 39.2 °F 81% 29.56 in 6.2 mi SSE 9.2 mph - N/A   Mostly Cloudy
10:10 AM 44.6 °F 37.8 °F 35.6 °F 71% 29.56 in 6.2 mi West 15.0 mph - N/A   Mostly Cloudy
10:30 AM 46.4 °F 41.1 °F 33.8 °F 62% 29.56 in 6.2 mi WSW 11.5 mph - N/A   Scattered Clouds
11:00 AM 48.2 °F - 32.0 °F 54% 29.59 in 6.2 mi NW 12.7 mph - N/A   Scattered Clouds
11:26 AM 48.2 °F - 28.4 °F 46% 29.59 in 6.2 mi North 15.0 mph - N/A   Partly Cloudy
11:30 AM 44.6 °F 38.4 °F 32.0 °F 61% 29.59 in 6.2 mi North 12.7 mph - N/A   Partly Cloudy
12:00 PM 44.6 °F 39.7 °F 32.0 °F 61% 29.59 in 6.2 mi NE 9.2 mph - N/A   Partly Cloudy
12:30 PM 42.8 °F 36.6 °F 28.4 °F 57% 29.62 in 6.2 mi NE 11.5 mph - N/A   Partly Cloudy
1:00 PM 44.6 °F 41.4 °F 26.6 °F 49% 29.62 in 6.2 mi NE 5.8 mph - N/A   Partly Cloudy
1:30 PM 42.8 °F 37.5 °F 26.6 °F 53% 29.65 in 6.2 mi NNE 9.2 mph - N/A   Partly Cloudy
2:00 PM 42.8 °F 37.0 °F 24.8 °F 49% 29.68 in 6.2 mi NE 10.4 mph - N/A   Partly Cloudy
2:30 PM 42.8 °F 38.6 °F 26.6 °F 53% 29.68 in 6.2 mi NNE 6.9 mph - N/A   Partly Cloudy
3:00 PM 42.8 °F 39.3 °F 23.0 °F 46% 29.71 in 6.2 mi NW 5.8 mph - N/A   Partly Cloudy
3:30 PM 42.8 °F 38.0 °F 19.4 °F 39% 29.74 in 6.2 mi North 8.1 mph - N/A   Partly Cloudy
3:44 PM 41.0 °F 34.3 °F 12.2 °F 31% 29.74 in 6.2 mi West 11.5 mph - N/A   Partly Cloudy
4:00 PM 41.0 °F 32.5 °F 12.2 °F 31% 29.77 in 6.2 mi West 17.3 mph - N/A   Partly Cloudy
4:30 PM 39.2 °F 30.8 °F 10.4 °F 31% 29.77 in 6.2 mi West 15.0 mph - N/A   Partly Cloudy
5:00 PM 37.4 °F 28.9 °F 14.0 °F 38% 29.80 in 6.2 mi West 13.8 mph 25.3 mph N/A   Partly Cloudy
5:30 PM 35.6 °F 28.6 °F 14.0 °F 41% 29.83 in 6.2 mi WNW 9.2 mph - N/A   Partly Cloudy
6:00 PM 33.8 °F 26.4 °F 14.0 °F 44% 29.83 in 6.2 mi NW 9.2 mph - N/A   Partly Cloudy
6:30 PM 33.8 °F 24.8 °F 14.0 °F 44% 29.86 in 6.2 mi West 12.7 mph - N/A   Partly Cloudy
7:00 PM 32.0 °F 23.6 °F 14.0 °F 48% 29.86 in 6.2 mi West 10.4 mph - N/A   Partly Cloudy
7:30 PM 30.2 °F 21.9 °F 14.0 °F 51% 29.89 in 6.2 mi West 9.2 mph - N/A   Partly Cloudy
8:00 PM 32.0 °F 23.6 °F 14.0 °F 48% 29.89 in 6.2 mi West 10.4 mph - N/A   Partly Cloudy
8:30 PM 30.2 °F 23.4 °F 15.8 °F 55% 29.92 in 6.2 mi West 6.9 mph - N/A   Partly Cloudy
9:00 PM 30.2 °F 23.4 °F 15.8 °F 55% 29.92 in 6.2 mi WNW 6.9 mph - N/A   Partly Cloudy
9:30 PM 30.2 °F 24.3 °F 14.0 °F 51% 29.92 in 6.2 mi West 5.8 mph - N/A   Partly Cloudy
10:00 PM 24.8 °F 20.5 °F 14.0 °F 64% 29.92 in 6.2 mi SW 3.5 mph - N/A   Partly Cloudy
10:30 PM 24.8 °F 20.5 °F 17.6 °F 74% 29.92 in 6.2 mi ESE 3.5 mph - N/A   Partly Cloudy
11:00 PM 24.8 °F 17.9 °F 17.6 °F 74% 29.92 in 6.2 mi East 5.8 mph - N/A   Partly Cloudy
11:30 PM 24.8 °F 20.5 °F 15.8 °F 69% 29.92 in 6.2 mi SE 3.5 mph - N/A   Partly Cloudy